Location: SAPM � Hemmingford
(45.0500°N, 73.5833°W)
Time: 22:54:37
(UTC-04:00)

Daily predictions for brighter satellites

Satellite Brightness Start Highest point End
(mag) Time Altitude Azimuth Time Altitude Azimuth Time Altitude Azimuth
Cosmos 1340 Rocket 4.2 20:58:27 10° SSW 21:02:17 43° WNW 21:06:11 10° N
Sich 1 Rocket 3.8 20:57:57 10° S 21:02:24 53° E 21:06:53 10° NNE
SL-08 ROCKET BODY 4.4 20:58:29 10° S 21:04:30 85° E 21:10:27 10° N
Cosmos 1356 Rocket 4.1 21:01:29 10° SSW 21:05:41 62° WNW 21:09:58 10° N
Cosmos 1892 3.4 21:02:03 10° SSW 21:05:49 59° W 21:09:40 10° N
Cosmos 1782 2.9 21:04:36 10° N 21:08:39 83° W 21:12:41 10° S
NOSS 2-2 (E) 4.2 21:04:39 10° SW 21:08:52 66° NW 21:13:58 10° NE
Envisat 3.0 21:07:24 10° SSE 21:12:27 71° ENE 21:17:32 10° N
COSMOS 2487 3.0 21:11:20 10° N 21:14:50 45° ENE 21:18:09 11° SE
CZ-4 DEB 4.2 21:13:06 10° S 21:16:04 38° W 21:19:05 10° NNW
Cosmos 2341 Rocket 4.3 21:11:30 10° SSE 21:17:31 49° E 21:23:31 10° NNE
Cosmos 1975 Rocket 3.6 21:15:12 10° N 21:19:18 40° ENE 21:23:14 11° SE
Coronas F rocket 3.9 21:19:15 10° SW 21:21:28 24° WNW 21:23:42 10° NNW
Cosmos 1939 Rocket 2.9 21:19:03 10° S 21:22:56 77° WSW 21:26:54 10° NNW
TIMED 4.5 21:19:35 10° S 21:23:55 68° ESE 21:28:17 10° NNE
ATLAS 5 CENTAUR R/B 3.8 21:21:51 10° NW 21:27:11 33° WSW 21:32:48 10° S
ARGOS 3.9 21:23:42 12° SE 21:28:17 38° ENE 21:33:13 10° N
Cosmos 407 Rocket 4.1 21:23:31 10° NNW 21:28:42 58° WSW 21:33:54 10° S
Timation 2 Rocket 4.1 21:23:17 10° NNW 21:29:13 57° ENE 21:34:22 14° SE
ERS-1 Rocket 3.7 21:25:10 10° S 21:30:06 55° W 21:35:04 10° NNW
Cosmos 2084 3.2 21:26:54 10° SSW 21:30:40 55° SE 21:34:25 10° NE
Cosmos 1908 Rocket 3.5 21:26:36 10° S 21:31:00 84° E 21:35:28 10° N
Cosmos 1378 Rocket 3.5 21:27:05 10° N 21:31:25 84° E 21:35:44 10° S
NOSS 5 (C) 4.1 21:29:52 10° SSW 21:33:12 67° SE 21:36:17 10° NE
Cosmos 1733 Rocket 4.4 21:29:01 10° SSW 21:33:12 42° WNW 21:37:23 10° N
Cosmos 1140 Rocket 3.6 21:29:37 10° NNW 21:34:45 64° ENE 21:39:06 14° SSE
deb Chang Zheng 4 3.6 21:31:24 10° NNE 21:35:50 89° WNW 21:40:16 10° SSW
H-2A R/B 3.5 21:32:36 12° ESE 21:36:24 25° ENE 21:40:40 10° N
BREEZE-M DEB 4.4 21:33:11 10° SW 21:37:41 63° SSE 21:40:34 10° ENE
USA 234 4.4 21:34:38 10° E 21:38:55 18° ESE 21:43:11 10° SSE
Nimbus 7 Rocket 4.4 21:35:12 10° NNE 21:41:10 82° ESE 21:47:10 10° SSW
Cosmos 1452 Rocket 3.5 21:35:58 10° SSW 21:41:14 89° ESE 21:46:34 10° NNE
Cosmos 2154 Rocket 4.1 21:37:48 10° S 21:44:03 85° W 21:50:17 10° N
USA 245 3.4 21:44:18 19° SE 21:46:30 53° ENE 21:50:35 10° N
YAOGAN 6 2.5 21:44:08 17° SSE 21:46:47 73° ENE 21:50:18 10° N
CZ-4B R/B 3.8 21:42:33 10° NNE 21:47:16 42° E 21:51:12 14° SSE
Cosmos 1242 Rocket 2.6 21:44:22 10° N 21:48:01 64° ENE 21:50:30 19° SSE
Cosmos 1833 Rocket 3.5 21:42:49 10° NNW 21:48:06 39° NE 21:52:00 17° ESE
Cosmos 1408 2.6 21:45:06 10° S 21:48:46 81° W 21:52:26 10° N
Cosmos 2278 Rocket 2.1 21:45:54 10° SSW 21:51:34 80° ESE 21:57:16 10° NNE
SPOT 1/Viking Rocket 3.6 21:47:24 16° SSE 21:51:35 67° ENE 21:56:47 10° N
CZ-4 SHROUD 3.2 21:50:45 18° S 21:52:56 78° WSW 21:56:03 10° NNW
Cosmos 1825 2.4 21:49:20 10° SSW 21:53:08 72° W 21:56:58 10° N
Cosmos 1844 Rocket 3.6 21:49:17 10° SW 21:54:47 51° WNW 22:00:18 10° NNE
Intercosmos 25 3.0 21:52:53 16° S 21:55:27 54° E 21:58:33 10° NNE
Cosmos 1844 4.2 21:50:48 10° SW 21:56:32 66° WNW 22:02:20 10° NNE
PSLV R/B 3.5 21:55:39 18° S 21:57:41 58° W 22:00:37 10° NNW
MetOp-A 4.3 21:52:40 12° S 21:57:44 76° WSW 22:03:07 10° NNW
Cosmos 2151 Rocket 4.3 21:56:02 21° SE 21:58:28 36° E 22:02:37 10° NNE
Landsat 7 4.5 21:57:13 20° SE 22:00:00 41° ENE 22:04:29 10° N
H-2A R/B 3.3 21:56:21 10° SSW 22:00:20 37° W 22:04:17 10° NNW
Cosmos 1184 Rocket 3.3 21:59:54 10° SSW 22:03:11 62° W 22:06:32 10° N
Meteor 1-14 Rocket 4.3 21:58:45 13° S 22:03:39 57° E 22:09:07 10° NNE
SL-8 R/B 4.2 22:00:31 10° W 22:05:19 62° N 22:10:06 10° ENE
Cosmos 2082 Rocket 2.3 22:03:49 10° NNW 22:09:32 68° ENE 22:13:01 24° SE
Cosmos 1850 Rocket 4.1 22:06:33 10° NNW 22:11:53 83° WSW 22:15:25 22° SSE
Cosmos 2366 rocket 4.2 22:07:19 17° SSE 22:12:02 56° E 22:18:14 10° NNE
Cosmos 1238 Rocket 4.2 22:12:17 10° NNW 22:15:11 30° W 22:18:28 10° SSW
Cosmos 1812 3.8 22:11:45 10° N 22:15:14 31° ENE 22:16:16 27° ESE
Terra 2.5 22:13:28 25° ESE 22:15:44 41° ENE 22:20:13 10° N
ISS -3.4 22:14:24 10° WSW 22:17:40 84° NNW 22:20:56 10° ENE
SL-08 RB Rocket 3.7 22:17:17 25° SSE 22:19:59 89° E 22:24:40 10° NNW
SPOT 5 4.2 22:16:02 10° SSW 22:20:59 41° W 22:26:03 10° NNW
Okean 1 Rocket 4.4 22:20:59 23° ESE 22:21:40 24° E 22:25:13 10° NE
USA 229 DEB 3.8 22:17:52 10° NW 22:25:01 83° NE 22:29:26 26° SE
USA 229 3.8 22:17:58 10° NW 22:25:07 82° NE 22:29:32 26° SE
Cosmos 2297 3.6 22:20:57 10° SSW 22:26:38 79° ESE 22:32:24 10° NNE
Okean 2 Rocket 4.0 22:26:08 10° SSW 22:30:23 47° WNW 22:34:40 10° N
Cosmos 1741 Rocket 4.4 22:27:05 10° NNW 22:32:13 57° WSW 22:35:16 24° S
DMSP B5D2-2 4.4 22:27:33 10° NNE 22:32:34 45° E 22:34:30 32° SSE
Lacrosse 5 3.8 22:38:29 14° E 22:38:29 14° E 22:39:30 10° ENE
Gbstr 26 Del rocket 3.6 22:32:42 10° WNW 22:37:48 57° NNE 22:40:13 25° E
Cosmos 2218 Rocket 4.1 22:33:57 14° S 22:39:35 82° W 22:46:02 10° N
Cosmos 1331 Rocket 4.3 22:42:01 36° SSE 22:43:29 46° ESE 22:48:24 10° NNE
ASTEX 1 3.9 22:39:20 10° NNE 22:44:05 43° E 22:45:20 36° SE
CZ-4C R/B 3.4 22:43:58 42° S 22:45:13 75° WSW 22:49:22 10° NNW
BREEZE-M DEB (TANK) 3.7 22:37:57 10° WNW 22:46:59 38° SW 22:48:20 30° SSW
Timation 1 Rocket 4.4 22:44:33 26° S 22:47:53 59° ESE 22:53:47 10° NE
Cosmos 1110 Rocket 4.0 22:48:01 35° S 22:50:05 60° ESE 22:55:13 10° NNE
BREEZE-M DEB (TANK) 3.2 22:49:12 10° WNW 22:51:19 36° N 22:55:28 10° ENE
Cosmos 1727 Rocket 4.0 22:46:25 10° N 22:52:36 76° W 22:56:01 28° S
DELTA 2 DEB (DPAF) 4.4 22:51:58 35° SSW 22:53:42 61° WSW 22:58:09 10° NNW
AVUM R/B 3.3 22:50:27 10° NNW 22:54:00 77° WSW 22:54:14 72° SSW
Cosmos 1400 Rocket 4.2 22:59:55 26° E 22:59:55 26° E 23:02:56 10° NE
CARTOSAT-1 3.6 22:58:42 44° S 22:59:55 70° WSW 23:04:15 10° NNW
Cosmos 1536 4.4 23:00:35 22° ENE 23:00:35 22° ENE 23:03:09 10° NE
Cosmos 2369 Rocket 3.6 23:00:27 21° E 23:00:27 21° E 23:04:10 10° NE
ATLAS 2AS CENTAUR R/B 4.4 22:56:33 10° NNW 23:03:44 32° NNE 23:10:42 10° E
Meteor 2-19 Rocket 4.4 23:00:06 26° SSW 23:03:47 83° W 23:09:56 10° N
NOSS 3-1 (C) 4.1 23:06:07 10° NW 23:13:34 72° NE 23:17:46 32° SE
Cosmos 1486 Rocket 4.0 23:08:20 10° NNW 23:13:41 80° ENE 23:15:08 50° SSE
Meteor 1-20 Rocket 4.3 23:11:44 29° SSW 23:14:39 73° W 23:20:12 10° N
H-2A R/B 2.7 23:13:15 31° SSW 23:15:32 50° W 23:20:42 10° NNW
Okean 1 3.8 23:18:03 10° NNW 23:22:00 51° W 23:22:36 46° SW
USA 234 3.1 23:16:10 10° NE 23:22:43 69° SE 23:29:11 10° SW
Cosmos 1892 Rocket 4.4 23:19:48 10° N 23:23:52 36° ENE 23:24:02 36° E
Cosmos 1633 3.9 23:24:50 31° ENE 23:24:50 31° ENE 23:27:21 10° NNE
Cosmos 1821 Rocket 4.0 23:27:02 45° SSE 23:28:55 67° E 23:35:05 10° NNE
Cosmos 1833 Rocket 3.7 23:26:54 10° NW 23:31:57 35° WSW 23:33:42 28° SW
Cosmos 2084 Rocket 4.4 23:31:07 10° NNW 23:34:42 34° NE 23:35:14 33° ENE
Cosmos 2285 Rocket 4.2 23:34:44 45° SE 23:35:50 49° ESE 23:41:58 10° NNE
Cosmos 1943 Rocket 4.0 23:37:08 16° E 23:37:08 16° E 23:39:46 10° ENE
Meteor 2-21 Rocket 4.4 23:39:07 50° SSE 23:40:47 74° E 23:47:00 10° NNE
Cosmos 1934 Rocket 3.9 23:40:23 52° SSE 23:41:49 70° E 23:47:51 10° NNE
Meteor 2-16 Rocket 4.5 23:41:16 50° SE 23:42:36 63° E 23:48:38 10° NNE
Cosmos 2123 Rocket 4.0 23:37:48 10° N 23:44:05 69° E 23:45:41 50° SE
Cosmos 1302 Rocket 3.9 23:43:58 55° SSW 23:45:09 87° WNW 23:50:30 10° NNE
SL-8 R/B 4.0 23:43:28 10° WNW 23:48:16 64° NNE 23:50:07 35° E
Cosmos 1025 Rocket 3.0 23:44:11 10° N 23:48:35 80° W 23:48:39 80° WSW
Cosmos 1602 4.0 23:49:21 64° NW 23:49:21 64° NW 23:53:00 10° N
Meteor 2-21 4.5 23:49:43 44° SSW 23:51:48 77° W 23:58:02 10° N
Cosmos 2082 Rocket 4.0 23:49:08 10° NW 23:53:00 19° W 23:54:52 16° WSW
Cosmos 1455 Rocket 3.9 23:53:59 39° ENE 23:53:59 39° ENE 23:57:30 10° NNE
Terra 3.5 23:52:21 21° WSW 23:53:38 24° W 23:57:27 10° NW
ALOS 2 3.2 23:53:52 46° ENE 23:53:55 46° ENE 23:58:07 10° N
ISS -1.2 23:51:33 10° WNW 23:54:25 27° N 23:57:18 10° NE
